Home > Weather > Newport > Past weeks

Flag for United Kingdom Weather for the Past 2 Weeks in Newport, Wales, United Kingdom

Now
41 °F

Mostly cloudy.


Feels Like: 36 °F
Forecast: N/A
Wind: 7 mph from East

Location: Bristol / Lulsgate

Current Time: Feb 12, 2016 at 4:47:21 PM

Latest Report: Feb 12, 2016 at 4:20 PM


Visibility: N/A

Pressure: 29.33 "Hg

Humidity: 87%

Dew point: 37 °F

Location of NewportLocation

Historic Weather in Newport — Graph

°F

Newport Temperature Yesterday

Maximum temperature yesterday: 45 °F (at 12:50 PM)
Minimum temperature yesterday: 36 °F (at 12:20 AM)
Average temperature yesterday: 39 °F

High & Low Weather Summary for the Past Weeks

 TemperatureHumidityPressure
High54 °F (Feb 1, 1:50 PM)100% (Jan 30, 12:50 AM)30.39 "Hg (Jan 30, 12:50 AM)
Low34 °F (Feb 10, 10:50 PM)62% (Feb 2, 11:50 AM)29.00 "Hg (Feb 8, 4:20 AM)
Average44 °F86%29.72 "Hg
* Reported Jan 28 3:20 PM — Feb 12 3:20 PM, Newport, Weather by CustomWeather, © 2016

Note: Actual official high and low records may vary slightly from our data, if they occured in-between our weather recording intervals... More about our weather records

Advertising

Newport Weather History for the Previous 24 Hours

 ConditionsComfort  
Time TempWeatherWind HumidityBarometerVisibility
3:20 PM
Fri, Feb 12
41 °FLight rain. Cloudy.7 mph87%29.33 "HgN/A
2:50 PM43 °FMostly cloudy.12 mph76%29.30 "HgN/A
2:20 PM45 °FOvercast.10 mph76%29.30 "HgN/A
1:50 PM43 °FMostly cloudy.10 mph81%29.30 "HgN/A
1:20 PM45 °FPartly sunny.12 mph71%29.30 "HgN/A
12:50 PM41 °FMostly cloudy.13 mph87%29.30 "HgN/A
12:20 PM43 °FPartly sunny.14 mph81%29.30 "HgN/A
11:50 AM43 °FPartly sunny.17 mph87%29.30 "HgN/A
11:20 AM41 °FScattered clouds.15 mph87%29.30 "HgN/A
10:50 AM41 °FScattered clouds.14 mph93%29.30 "HgN/A
10:20 AM39 °FPassing clouds.10 mph93%29.30 "HgN/A
9:50 AM37 °FLight rain. Partly sunny.13 mph93%29.30 "HgN/A
9:20 AM37 °FPartly sunny.13 mph93%29.27 "HgN/A
8:50 AM37 °FChilly.12 mph93%29.27 "HgN/A
8:20 AM36 °FChilly.12 mph100%29.27 "HgN/A
7:50 AM36 °FPassing clouds.12 mph93%29.27 "Hg6 mi
7:20 AM36 °FPassing clouds.13 mph93%29.27 "Hg4 mi
6:50 AM36 °FPassing clouds.13 mph93%29.30 "HgN/A
6:20 AM36 °FPassing clouds.12 mph93%29.30 "Hg5 mi
5:20 AM34 °FPassing clouds.12 mph100%29.30 "HgN/A
4:50 AM36 °FOvercast.13 mph93%29.33 "HgN/A
4:20 AM36 °FPartly cloudy.12 mph93%29.33 "HgN/A
3:50 AM36 °FPassing clouds.10 mph93%29.36 "HgN/A
3:20 AM36 °FPassing clouds.10 mph100%29.36 "HgN/A
2:50 AM36 °FPassing clouds.9 mph93%29.36 "HgN/A
2:20 AM37 °FPassing clouds.8 mph93%29.39 "HgN/A
1:50 AM39 °FPassing clouds.12 mph87%29.39 "HgN/A
1:20 AM39 °FChilly.10 mph87%29.42 "HgN/A
12:50 AM39 °FPassing clouds.9 mph87%29.42 "HgN/A
12:20 AM39 °FPassing clouds.10 mph87%29.45 "HgN/A
11:50 PM
Thu, Feb 11
37 °FChilly.7 mph87%29.45 "HgN/A
11:20 PM37 °FChilly.7 mph87%29.45 "HgN/A
10:50 PM37 °FChilly.7 mph93%29.47 "HgN/A
9:50 PM37 °FPassing clouds.6 mph87%29.50 "HgN/A
9:20 PM37 °FChilly.6 mph87%29.50 "HgN/A
8:50 PM37 °FPartly cloudy.5 mph87%29.53 "HgN/A
8:20 PM37 °FPassing clouds.6 mph87%29.53 "HgN/A
7:50 PM37 °FPassing clouds.5 mph93%29.53 "HgN/A
7:20 PM39 °FPassing clouds.6 mph87%29.56 "HgN/A
6:50 PM39 °FPassing clouds.5 mph87%29.56 "HgN/A
6:20 PM41 °FOvercast.6 mph81%29.56 "HgN/A
5:50 PM41 °FOvercast.5 mph81%29.56 "HgN/A
5:20 PM41 °FPassing clouds.3 mph81%29.56 "HgN/A
4:50 PM43 °FOvercast.5 mph76%29.56 "HgN/A
4:20 PM43 °FMore clouds than sun.6 mph76%29.56 "HgN/A
Weather by CustomWeather, © 2016

See weather overviewHow to use our weather pages